Track STARLINK-1585 now! 10-day predictions STARLINK-1585 is classified as:
1 46117U 20057A 21021.51145144 .00047528 00000-0 32159-2 0 9992 2 46117 53.0036 65.6328 0001272 83.6487 276.4646 15.06077474 24671